Zurück zum Katalog

DELTA 1 DEB

AktivSSO
NORAD 7073·DEBRIS·🇺🇸 United States

Gestartet Nov 6, 1973 von Vandenberg Space Force Base

Loading…

Nächste Überflüge (nächste 24 Stunden)

TLE

AktuellSource: Space-Track

Epoche: Sep 14, 2026, 08:25 UTC

1 07073U 73086BR  26257.35102940 -.00000047  00000-0 -10639-4 0  9993
2 07073 102.5295 224.0692 0063679 218.9643 309.5936 12.28475604369824

Verfolge DELTA 1 DEB in Echtzeit mit AllMySat

Download on the App Store